Cape Girardeau, MO

7:58 PM CST on December 06, 2019 (GMT -0600)
Cape Girardeau Regional

Weather History for KCGI - October, 2019

Change the Weather History Date:

Saturday, October 5, 2019

  Actual Average Record
Temperature  
Mean Temperature 67 °F 61 °F  
Max Temperature 82 °F 74 °F 90 °F (2018)
Min Temperature 51 °F 48 °F 29 °F (1999)
Degree Days  
Heating Degree Days 0 6  
Month to date heating degree days 0 26  
Since 1 July heating degree days 0 75  
Cooling Degree Days 2 2  
Month to date cooling degree days 44 10  
Year to date cooling degree days 1768 1432  
Growing Degree Days 16 (Base 50)    
Moisture  
Dew Point 52 °F    
Average Humidity 59    
Maximum Humidity 89    
Minimum Humidity 28    
Precipitation  
Precipitation T in 0.11 in 1.35 in (1998)
Month to date precipitation T 0.57  
Year to date precipitation 47.67 34.90  
Sea Level Pressure  
Sea Level Pressure 30.02 in    
Wind  
Wind Speed 4 mph (SSE)    
Max Wind Speed 17 mph    
Max Gust Speed 24 mph    
Visibility 10 miles    
Events      
T = Trace of Precipitation, MM = Missing Value Source: NWS Daily Summary

Daily Weather History Graph

Daily Weather History Graph

Search for Another Location

Airport or City:

Astronomy

Oct. 05, 2019 Rise Set
Actual Time 6:56 AM CDT 6:35 PM CDT
Civil Twilight 6:30 AM CDT 7:01 PM CDT
Nautical Twilight 6:00 AM CDT 7:31 PM CDT
Astronomical Twilight 5:30 AM CDT 8:02 PM CDT
Moon 2:15 PM CDT (10/5) No Moon Set
Length of Visible Light 12h 30m
Length of Day
11h 38m
Waxing Crescent, 50% of the Moon is Illuminated
Oct 5
Waxing Crescent
Oct 13
Full
Oct 21
Last Quarter
Oct 27
New
Nov 4
First Quarter

Hourly Weather History & Observations

Time (CDT) Temp. Dew Point Humidity Pressure Visibility Wind Dir Wind Speed Gust Speed Precip Events Conditions
12:53 AM 57.9 °F 48.9 °F 72% 30.14 in 10.0 mi ENE 3.5 mph - N/A   Clear
1:53 AM 57.9 °F 48.9 °F 72% 30.12 in 10.0 mi ENE 3.5 mph - N/A   Clear
2:53 AM 54.0 °F 48.9 °F 83% 30.11 in 10.0 mi Calm Calm - N/A   Clear
3:53 AM 54.0 °F 48.9 °F 83% 30.09 in 10.0 mi Calm Calm - N/A   Clear
4:53 AM 53.1 °F 48.9 °F 86% 30.09 in 10.0 mi Calm Calm - N/A   Clear
5:53 AM 51.1 °F 48.0 °F 89% 30.10 in 10.0 mi Calm Calm - N/A   Clear
6:53 AM 51.1 °F 48.0 °F 89% 30.10 in 10.0 mi SSW 3.5 mph - N/A   Clear
7:53 AM 55.0 °F 52.0 °F 89% 30.09 in 10.0 mi Calm Calm - N/A   Clear
8:53 AM 64.0 °F 53.1 °F 67% 30.09 in 10.0 mi Calm Calm - N/A   Clear
9:53 AM 66.9 °F 50.0 °F 54% 30.08 in 10.0 mi SE 6.9 mph - N/A   Clear
10:53 AM 72.0 °F 51.1 °F 48% 30.05 in 10.0 mi SSE 5.8 mph - N/A   Clear
12:53 PM 79.0 °F 50.0 °F 36% 30.01 in 10.0 mi Calm Calm - N/A   Clear
1:53 PM 81.0 °F 50.0 °F 34% 29.99 in 10.0 mi South 3.5 mph - N/A   Clear
2:53 PM 82.0 °F 48.0 °F 30% 29.97 in 10.0 mi SW 6.9 mph - N/A   Scattered Clouds
3:53 PM 82.0 °F 46.9 °F 29% 29.96 in 10.0 mi SW 5.8 mph - N/A   Mostly Cloudy
4:53 PM 79.0 °F 55.0 °F 44% 29.96 in 8.0 mi Calm Calm - 0.00 in   Mostly Cloudy
5:53 PM 77.0 °F 55.0 °F 47% 29.94 in 10.0 mi ESE 4.6 mph - N/A   Scattered Clouds
6:53 PM 72.0 °F 57.9 °F 61% 29.94 in 10.0 mi SE 4.6 mph - N/A   Scattered Clouds
7:53 PM 69.1 °F 61.0 °F 75% 29.96 in 10.0 mi SW 3.5 mph - N/A   Clear
8:53 PM 68.0 °F 60.1 °F 76% 29.97 in 10.0 mi SW 4.6 mph - N/A   Clear
9:53 PM 66.9 °F 59.0 °F 76% 29.94 in 10.0 mi SE 5.8 mph - N/A   Clear
10:53 PM 73.0 °F 54.0 °F 51% 29.91 in 10.0 mi South 11.5 mph - N/A   Clear
11:53 PM 70.0 °F 55.0 °F 59% 29.96 in 10.0 mi NNW 4.6 mph - N/A   Clear